Starlink 31151

operational
NORAD ID: 58742 Int'l Des: 2024-005 Owner: SPXS Country: US Constellation: starlink
LEOCIRCULAR

About Starlink 31151

Description loading...

Live Position

Loading 3D Globe...

Upcoming Passes

Altitude History

Altitude vs Time

uPlot chart will show altitude changes over time

Two-Line Element Set

1 58742U 24005Q 25303.74196010 .00000002 00000-0 15231-4 0 9996
2 58742 43.0037 207.7733 0001402 266.4410 93.6271 15.02532470100967
Epoch: Oct 30, 2025 • Age: 10 hours

Current Status

Altitude 560.4 km
Velocity 7.59 km/s
Sub-Earth Point 30.27°N, 112.25°W
Launch Date Jan 7, 2024
Age 1.8 years
Type internet

Technical Details

Classification Payload
Mass 730.00 kg
Dry Mass 700.00 kg
Total Mass 730.00 kg
Length 0.30 m
Diameter 4.10 m
Span 29.00 m
Shape Box + pan
Manufacturer SPXS
Bus Type Starlink V2M
Phase Status In Orbit
Owner/State SPXS/US

Large Constellations

Loading constellations...